[ hide orbit diagram ]
For accurate long-term ephemerides, please instead use our Horizons system.This orbit viewer was implemented using two-body methods, and hence should not be used for determining accurate long-term trajectories (over several years or decades) or planetary encounter circumstances.
Orbital Elements at Epoch 2459000.5 (2020-May-31.0) TDB
Reference: JPL 16 (heliocentric ecliptic J2000)
Element | Value | Uncertainty (1-sigma) | Units |
e | .2047000241520293 | 8.1407e-08 | |
a | 2.224984149545141 | 1.2854e-08 | au |
q | 1.769529840395368 | 1.8053e-07 | au |
i | 6.565533638210917 | 6.0917e-06 | deg |
node | 10.72512054083547 | 4.4048e-05 | deg |
peri | 334.6239756068658 | 4.5834e-05 | deg |
M | 151.4540416194396 | 1.28e-05 | deg |
tp | 2458490.503523658424 (2019-Jan-07.00352366) | 4.068e-05 | TDB |
period | 1212.240555087319 3.32 | 1.0505e-05 2.876e-08 | d yr |
n | .2969707608685546 | 2.5735e-09 | deg/d |
Q | 2.680438458694913 | 1.5486e-08 | au |
|
| | Orbit Determination Parameters
Additional Information
|
[ show covariance matrix ]
Physical Parameter Table
Parameter |
Symbol |
Value |
Units |
Sigma |
Reference |
Notes |
absolute magnitude |
H |
17.2 |
|
n/a |
MPO503388 |
|
|
344562 (2002 XZ33) Discovered 2002-Dec-05 by LINEAR at Socorro |
Reference: 20121128/Numbers.arc | Last Updated: 2012-12-03 |
|
|